Location: Kalberh�ni
(46.4610°N, 7.2453°E)
Time: 02:30:38
(UTC+00:00)

Cosmos 1812 Rocket - Pass Details

Date: 20 June 2021
Orbit: 606 x 631 km, 82.5° (Epoch: 25 July)

Event Time Altitude Azimuth Distance (km) Brightness Sun altitude
Rises 22:51:33 0° 355° (N) 2,881 8.6 -19.5°
Reaches altitude 10° 22:53:50 10° 0° (N) 1,974 7.3 -19.5°
Maximum altitude 22:58:06 51° 78° (ENE) 770 4.0 -19.7°
Enters shadow 22:59:21 38° 127° (SE) 937 4.1 -19.7°
